| time (UTC) | temp C | wind direction | speed KPH | gust KPH | rain 1hr cm | rain 24hr cm | rain mn cm | humidity % | barometer mb |
| 20260509000520 | 17 | 0.0 | 0.0 | 0.00 | 0.00 | 0.00 | 80 | 1013.4 | |
| 20260508235518 | 17 | 0.0 | 0.0 | 0.00 | 0.00 | 0.00 | 77 | 1013.3 | |
| 20260508234558 | 18 | 0.0 | 0.0 | 0.00 | 0.00 | 0.00 | 76 | 1013.2 | |
| 20260508233520 | 18 | 0.0 | 0.0 | 0.00 | 0.00 | 0.00 | 76 | 1013.2 | |
| 20260508232520 | 18 | 0.0 | 0.0 | 0.00 | 0.00 | 0.00 | 74 | 1013.2 | |
| 20260508231520 | 18 | 0.0 | 0.0 | 0.00 | 0.00 | 0.00 | 76 | 1013.3 | |
| 20260508230520 | 19 | 0.0 | 0.0 | 0.00 | 0.00 | 0.00 | 73 | 1013.4 | |
| 20260508225520 | 19 | 0.0 | 0.0 | 0.00 | 0.00 | 0.00 | 74 | 1013.3 | |
| 20260508224520 | 19 | 0.0 | 1.6 | 0.00 | 0.00 | 0.00 | 71 | 1013.2 | |
| 20260508223520 | 20 | 0.0 | 0.0 | 0.00 | 0.00 | 0.00 | 70 | 1013.2 | |
| 20260508222520 | 20 | 0.0 | 0.0 | 0.00 | 0.00 | 0.00 | 67 | 1013.3 | |
| 20260508221520 | 20 | 0.0 | 0.0 | 0.00 | 0.00 | 0.00 | 69 | 1013.2 | |
| 20260508220520 | 20 | 0.0 | 0.0 | 0.00 | 0.00 | 0.00 | 66 | 1013.2 | |
| 20260508215520 | 20 | 0.0 | 1.6 | 0.00 | 0.00 | 0.00 | 63 | 1013.1 | |
| 20260508214520 | 20 | 0.0 | 0.0 | 0.00 | 0.00 | 0.00 | 61 | 1013.1 | |
| 20260508213520 | 20 | 0.0 | 4.8 | 0.00 | 0.00 | 0.00 | 61 | 1013.3 | |
| 20260508212520 | 20 | 0.0 | 0.0 | 0.00 | 0.00 | 0.00 | 60 | 1013.1 | |
| 20260508211520 | 21 | 0.0 | 3.2 | 0.00 | 0.00 | 0.00 | 62 | 1013.2 | |
| 20260508210520 | 21 | 0.0 | 3.2 | 0.00 | 0.00 | 0.00 | 61 | ||
| 20260508205520 | 21 | 0.0 | 4.8 | 0.00 | 0.00 | 0.00 | 57 | ||
| 20260508204520 | 21 | 0.0 | 3.2 | 0.00 | 0.00 | 0.00 | 58 | ||
| 20260508203519 | 21 | 0.0 | 1.6 | 0.00 | 0.00 | 0.00 | 57 | 1013.5 | |
| 20260508202519 | 21 | 0.0 | 1.6 | 0.00 | 0.00 | 0.00 | 56 | 1013.7 | |
| 20260508201520 | 21 | 113 | 1.6 | 4.8 | 0.00 | 0.00 | 0.00 | 54 | 1013.8 |
| 20260508200519 | 22 | 0.0 | 1.6 | 0.00 | 0.00 | 0.00 | 57 | 1013.9 | |
| 20260508195520 | 22 | 113 | 1.6 | 6.4 | 0.00 | 0.00 | 0.00 | 53 | 1013.9 |
| 20260508194520 | 22 | 0.0 | 1.6 | 0.00 | 0.00 | 0.00 | 58 | 1014.1 | |
| 20260508193520 | 22 | 293 | 1.6 | 4.8 | 0.00 | 0.00 | 0.00 | 54 | 1014.4 |
| 20260508192540 | 22 | 0.0 | 1.6 | 0.00 | 0.00 | 0.00 | 50 | 1014.6 | |
| 20260508191540 | 22 | 0.0 | 3.2 | 0.00 | 0.00 | 0.00 | 52 | 1014.7 | |
| 20260508190520 | 22 | 0.0 | 1.6 | 0.00 | 0.00 | 0.00 | 49 | 1014.8 | |
| 20260508185520 | 22 | 0.0 | 6.4 | 0.00 | 0.00 | 0.00 | 50 | 1014.9 | |
| 20260508184539 | 22 | 0.0 | 3.2 | 0.00 | 0.00 | 0.00 | 47 | 1015.0 | |
| 20260508183520 | 22 | 113 | 1.6 | 4.8 | 0.00 | 0.00 | 0.00 | 53 | 1015.3 |
| 20260508182520 | 21 | 113 | 1.6 | 4.8 | 0.00 | 0.00 | 0.00 | 50 | 1015.4 |
| 20260508181559 | 21 | 0.0 | 1.6 | 0.00 | 0.00 | 0.00 | 51 | 1015.6 | |
| 20260508180600 | 21 | 0.0 | 3.2 | 0.00 | 0.00 | 0.00 | 53 | 1015.6 | |
| 20260508175519 | 22 | 0.0 | 1.6 | 0.00 | 0.00 | 0.00 | 51 | 1015.8 | |
| 20260508174520 | 21 | 0.0 | 1.6 | 0.00 | 0.00 | 0.00 | 52 | 1015.9 | |
| 20260508173519 | 21 | 113 | 1.6 | 8.0 | 0.00 | 0.00 | 0.00 | 51 | 1016.1 |
| 20260508172519 | 21 | 90 | 1.6 | 6.4 | 0.00 | 0.00 | 0.00 | 53 | 1016.2 |
| 20260508171520 | 21 | 90 | 1.6 | 6.4 | 0.00 | 0.00 | 0.00 | 52 | 1016.2 |
| 20260508170519 | 21 | 90 | 1.6 | 4.8 | 0.00 | 0.00 | 0.00 | 57 | 1016.5 |
| 20260508165519 | 21 | 90 | 1.6 | 4.8 | 0.00 | 0.00 | 0.00 | 55 | 1016.6 |
| 20260508164540 | 21 | 68 | 1.6 | 4.8 | 0.00 | 0.00 | 0.00 | 52 | 1016.7 |
| 20260508163519 | 21 | 0.0 | 3.2 | 0.00 | 0.00 | 0.00 | 51 | 1016.8 | |
| 20260508162519 | 21 | 113 | 1.6 | 6.4 | 0.00 | 0.00 | 0.00 | 55 | 1017.0 |
| 20260508161519 | 21 | 113 | 1.6 | 6.4 | 0.00 | 0.00 | 0.00 | 51 | 1017.2 |
| 20260508160539 | 20 | 0.0 | 3.2 | 0.00 | 0.00 | 0.00 | 54 | 1017.2 | |
| 20260508155519 | 21 | 0.0 | 3.2 | 0.00 | 0.00 | 0.00 | 55 | 1017.2 | |
| 20260508154519 | 20 | 113 | 1.6 | 4.8 | 0.00 | 0.00 | 0.00 | 53 | 1017.3 |
| 20260508153519 | 20 | 90 | 1.6 | 4.8 | 0.00 | 0.00 | 0.00 | 55 | 1017.6 |
| 20260508152519 | 19 | 315 | 3.2 | 9.7 | 0.00 | 0.00 | 0.00 | 59 | 1017.7 |
| 20260508151519 | 19 | 315 | 1.6 | 9.7 | 0.00 | 0.00 | 0.00 | 58 | 1017.8 |
| 20260508150519 | 19 | 45 | 1.6 | 4.8 | 0.00 | 0.00 | 0.00 | 58 | 1017.8 |
| 20260508145519 | 19 | 0.0 | 1.6 | 0.00 | 0.00 | 0.00 | 59 | 1017.6 | |
| 20260508144519 | 18 | 0.0 | 4.8 | 0.00 | 0.00 | 0.00 | 62 | 1017.6 | |
| 20260508143519 | 18 | 315 | 1.6 | 4.8 | 0.00 | 0.00 | 0.00 | 60 | 1017.6 |
| 20260508142519 | 18 | 0.0 | 1.6 | 0.00 | 0.00 | 0.00 | 62 | 1017.6 | |
| 20260508141519 | 17 | 0.0 | 3.2 | 0.00 | 0.00 | 0.00 | 68 | 1017.6 | |
| 20260508140539 | 17 | 270 | 1.6 | 4.8 | 0.00 | 0.00 | 0.00 | 67 | 1017.7 |
| 20260508135519 | 16 | 0.0 | 1.6 | 0.00 | 0.00 | 0.00 | 73 | 1017.9 | |
| 20260508134519 | 16 | 0.0 | 1.6 | 0.00 | 0.00 | 0.00 | 84 | 1018.0 | |
| 20260508133519 | 15 | 0.0 | 1.6 | 0.00 | 0.00 | 0.00 | 89 | 1018.0 | |
| 20260508132519 | 14 | 0.0 | 1.6 | 0.00 | 0.00 | 0.00 | 93 | 1017.9 | |
| 20260508131539 | 13 | 0.0 | 0.0 | 0.00 | 0.00 | 0.00 | 94 | 1018.0 | |
| 20260508130519 | 12 | 0.0 | 1.6 | 0.00 | 0.00 | 0.00 | 97 | 1017.9 | |
| 20260508125519 | 12 | 0.0 | 1.6 | 0.00 | 0.00 | 0.00 | 98 | 1017.8 | |
| 20260508124519 | 11 | 0.0 | 0.0 | 0.00 | 0.00 | 0.00 | 98 | 1017.6 | |
| 20260508123539 | 11 | 0.0 | 0.0 | 0.00 | 0.00 | 0.00 | 97 | 1017.3 | |
| 20260508122519 | 10 | 0.0 | 0.0 | 0.00 | 0.00 | 0.00 | 97 | 1017.2 | |
| 20260508121519 | 10 | 0.0 | 0.0 | 0.00 | 0.00 | 0.00 | 97 | 1016.9 | |
| 20260508120519 | 9 | 0.0 | 0.0 | 0.00 | 0.00 | 0.00 | 97 | 1017.0 | |
| 20260508115519 | 9 | 0.0 | 0.0 | 0.00 | 0.00 | 0.00 | 97 | 1016.7 | |
| 20260508114539 | 8 | 0.0 | 0.0 | 0.00 | 0.00 | 0.00 | 97 | 1016.7 | |
| 20260508113519 | 8 | 0.0 | 0.0 | 0.00 | 0.00 | 0.00 | 97 | 1016.6 | |
| 20260508112519 | 8 | 0.0 | 0.0 | 0.00 | 0.00 | 0.00 | 97 | 1016.3 | |
| 20260508111519 | 8 | 0.0 | 0.0 | 0.00 | 0.00 | 0.00 | 97 | 1016.1 | |
| 20260508110518 | 8 | 0.0 | 0.0 | 0.00 | 0.00 | 0.00 | 97 | 1015.8 | |
| 20260508105559 | 7 | 0.0 | 0.0 | 0.00 | 0.00 | 0.00 | 97 | 1015.6 | |
| 20260508104518 | 7 | 0.0 | 0.0 | 0.00 | 0.00 | 0.00 | 97 | 1015.4 | |
| 20260508103539 | 7 | 0.0 | 0.0 | 0.00 | 0.00 | 0.00 | 97 | 1015.3 | |
| 20260508102538 | 8 | 0.0 | 0.0 | 0.00 | 0.00 | 0.00 | 97 | 1015.1 | |
| 20260508101519 | 8 | 0.0 | 0.0 | 0.00 | 0.00 | 0.00 | 97 | 1015.1 | |
| 20260508100519 | 8 | 0.0 | 0.0 | 0.00 | 0.00 | 0.00 | 96 | 1014.9 | |
| 20260508095539 | 8 | 0.0 | 0.0 | 0.00 | 0.00 | 0.00 | 96 | 1014.9 | |
| 20260508094539 | 8 | 0.0 | 0.0 | 0.00 | 0.00 | 0.00 | 96 | 1014.7 | |
| 20260508093539 | 8 | 0.0 | 0.0 | 0.00 | 0.00 | 0.00 | 96 | 1014.6 | |
| 20260508092519 | 8 | 0.0 | 0.0 | 0.00 | 0.00 | 0.00 | 96 | 1014.4 | |
| 20260508091539 | 8 | 0.0 | 0.0 | 0.00 | 2.08 | 0.00 | 96 | 1014.5 | |
| 20260508091145 | -17 | 0.0 | 0.0 | 0.00 | 2.08 | 0.00 | |||
| 20260508090038 | -17 | 0.0 | 0.0 | 0.00 | 2.08 | 0.00 | |||
| 20260508085023 | -17 | 0.0 | 0.0 | 0.00 | 2.08 | 0.00 | |||
| 20260508084651 | -17 | 0.0 | 0.0 | 0.00 | 2.08 | 0.00 | 1013.7 | ||
| 20260508084525 | -17 | 0.0 | 0.0 | 0.00 | 2.08 | 0.00 | |||
| 20260508083539 | -17 | 0.0 | 0.0 | 0.00 | 2.08 | 0.00 | |||
| 20260508083018 | -17 | 0.0 | 0.0 | 0.00 | 2.08 | 0.00 | |||
| 20260508082015 | 8 | 0.0 | 0.0 | 0.00 | 2.08 | 0.00 | 54 | 1014.1 | |
| 20260508081019 | 8 | 0.0 | 0.0 | 0.00 | 0.00 | 0.00 | 54 | 1014.2 | |
| 20260508080018 | 8 | 0.0 | 0.0 | 0.00 | 0.00 | 0.00 | 54 | 1014.1 | |
| 20260508075018 | 8 | 0.0 | 0.0 | 0.00 | 0.00 | 0.00 | 55 | 1014.0 | |
| 20260508074039 | 9 | 0.0 | 0.0 | 0.00 | 0.00 | 0.00 | 55 | 1014.1 | |
| 20260508073058 | 9 | 0.0 | 0.0 | 0.00 | 0.00 | 0.00 | 55 | 1014.1 | |
| 20260508072018 | 9 | 0.0 | 0.0 | 0.00 | 0.00 | 0.00 | 55 | 1014.2 | |
| 20260508071018 | 9 | 0.0 | 0.0 | 0.00 | 0.00 | 0.00 | 55 | 1014.1 | |
| 20260508070018 | 9 | 0.0 | 0.0 | 0.00 | 0.00 | 0.00 | 57 | 1014.0 | |
| 20260508065038 | 9 | 0.0 | 0.0 | 0.00 | 0.00 | 0.00 | 57 | 1014.0 | |
| 20260508064018 | 10 | 0.0 | 0.0 | 0.00 | 0.00 | 0.00 | 57 | 1013.8 | |
| 20260508063018 | 10 | 0.0 | 0.0 | 0.00 | 0.00 | 0.00 | 58 | 1013.9 | |
| 20260508062038 | 10 | 0.0 | 0.0 | 0.00 | 0.00 | 0.00 | 58 | 1013.8 | |
| 20260508061058 | 10 | 0.0 | 0.0 | 0.00 | 0.00 | 0.00 | 59 | 1013.9 | |
| 20260508060018 | 10 | 0.0 | 0.0 | 0.00 | 0.00 | 0.00 | 59 | 1013.9 | |
| 20260508055018 | 11 | 0.0 | 0.0 | 0.00 | 0.00 | 0.00 | 59 | 1013.9 | |
| 20260508054018 | 11 | 0.0 | 0.0 | 0.00 | 0.00 | 0.00 | 59 | 1014.0 | |
| 20260508053018 | 11 | 0.0 | 0.0 | 0.00 | 0.00 | 0.00 | 61 | 1014.0 | |
| 20260508052020 | 11 | 0.0 | 0.0 | 0.00 | 0.00 | 0.00 | 60 | 1014.0 | |
| 20260508051020 | 11 | 0.0 | 0.0 | 0.00 | 0.00 | 0.00 | 59 | 1013.9 | |
| 20260508050018 | 11 | 0.0 | 0.0 | 0.00 | 0.00 | 0.00 | 60 | 1013.8 | |
| 20260508045020 | 11 | 0.0 | 0.0 | 0.00 | 0.00 | 0.00 | 60 | 1013.7 | |
| 20260508044020 | 11 | 0.0 | 0.0 | 0.00 | 0.00 | 0.00 | 61 | 1013.7 | |
| 20260508043018 | 11 | 0.0 | 0.0 | 0.00 | 0.00 | 0.00 | 62 | 1013.5 | |
| 20260508042018 | 11 | 0.0 | 0.0 | 0.00 | 0.00 | 0.00 | 66 | 1013.5 | |
| 20260508041020 | 11 | 0.0 | 0.0 | 0.00 | 0.00 | 0.00 | 67 | 1013.4 | |
| 20260508040039 | 12 | 0.0 | 0.0 | 0.00 | 0.00 | 3.63 | 68 | 1013.3 | |
| 20260508035018 | 12 | 0.0 | 0.0 | 0.00 | 0.00 | 3.63 | 70 | 1013.2 | |
| 20260508034018 | 12 | 0.0 | 0.0 | 0.00 | 0.00 | 3.63 | 73 | 1013.2 | |
| 20260508033040 | 12 | 0.0 | 0.0 | 0.00 | 0.00 | 3.63 | 75 | 1013.3 | |
| 20260508032018 | 12 | 0.0 | 0.0 | 0.00 | 0.00 | 3.63 | 76 | 1013.2 | |
| 20260508031018 | 12 | 0.0 | 0.0 | 0.00 | 0.00 | 3.63 | 75 | 1013.3 | |
| 20260508030020 | 13 | 0.0 | 0.0 | 0.00 | 0.00 | 3.63 | 76 | 1013.0 | |
| 20260508025020 | 13 | 0.0 | 0.0 | 0.00 | 0.00 | 3.63 | 78 | 1012.9 | |
| 20260508024018 | 14 | 0.0 | 0.0 | 0.00 | 0.00 | 3.63 | 78 | 1012.9 | |
| 20260508023018 | 15 | 0.0 | 0.0 | 0.00 | 0.00 | 3.63 | 77 | 1012.9 | |
| 20260508022020 | 15 | 0.0 | 0.0 | 0.00 | 0.00 | 3.63 | 77 | 1012.7 | |
| 20260508021019 | 15 | 0.0 | 0.0 | 0.00 | 0.00 | 3.63 | 76 | 1012.6 | |
| 20260508020018 | 15 | 0.0 | 0.0 | 0.00 | 0.00 | 3.63 | 76 | 1012.6 | |
| 20260508015038 | 15 | 0.0 | 0.0 | 0.00 | 0.00 | 3.63 | 76 | 1012.5 | |
| 20260508014018 | 15 | 0.0 | 0.0 | 0.00 | 0.00 | 3.63 | 76 | 1012.3 | |
| 20260508013020 | 16 | 0.0 | 0.0 | 0.00 | 0.00 | 3.63 | 75 | 1012.0 | |
| 20260508012020 | 16 | 0.0 | 0.0 | 0.00 | 0.00 | 3.63 | 75 | 1011.8 | |
| 20260508011100 | 16 | 0.0 | 0.0 | 0.00 | 0.00 | 3.63 | 74 | 1011.7 | |
| 20260508010020 | 17 | 0.0 | 0.0 | 0.00 | 0.00 | 3.63 | 73 | 1011.6 | |
| 20260508005040 | 17 | 0.0 | 0.0 | 0.00 | 0.00 | 3.63 | 73 | 1011.2 | |
| 20260508004019 | 17 | 0.0 | 3.2 | 0.00 | 0.00 | 3.63 | 72 | 1011.2 | |
| 20260508003020 | 17 | 0.0 | 0.0 | 0.00 | 0.00 | 3.63 | 70 | ||
| 20260508002020 | 18 | 0.0 | 6.4 | 0.00 | 0.00 | 3.63 | 70 | ||
| 20260508001020 | 18 | 0.0 | 6.4 | 0.00 | 0.00 | 3.63 | 69 |